UAE6RM LTFM-OMDB

Flight info

Callsign UAE6RM
Flight time N/A
Altitude 27000
Route VICEN1R/35L VICEN T57 VEVUD/N0482F370 UT341 BAG UL614 OTKEP UM688 RATVO M688 SIDAD P975 SESRU M677 VUTEB
Aircraft B77W/H-SDE1E2E3FGHIJ2J3J4J5M1RWXY/LB1D1

Departure

Time 2026-05-07 16:38
Airport İstanbul Airport (LTFM)

Arrival

Time N/A
Airport Dubai International Airport (OMDB)
Time Latitude Longitude Altitude Speed Heading
2026-05-07 15:54 41.26246 28.73640 339 ft 0 kts 71°
2026-05-07 16:27 41.26245 28.73638 333 ft 1 kts 71°
2026-05-07 16:28 41.26239 28.73617 333 ft 3 kts 64°
2026-05-07 16:28 41.26230 28.73594 333 ft 3 kts 56°
2026-05-07 16:28 41.26218 28.73572 333 ft 3 kts 53°
2026-05-07 16:28 41.26206 28.73550 333 ft 3 kts 66°
2026-05-07 16:29 41.26203 28.73533 333 ft 3 kts 35°
2026-05-07 16:29 41.26199 28.73532 333 ft 2 kts
2026-05-07 16:29 41.26180 28.73527 333 ft 3 kts 26°
2026-05-07 16:29 41.26164 28.73517 333 ft 2 kts
2026-05-07 16:30 41.26159 28.73516 333 ft 0 kts
2026-05-07 16:32 41.26181 28.73516 333 ft 7 kts 355°
2026-05-07 16:33 41.26221 28.73447 335 ft 14 kts 274°
2026-05-07 16:33 41.26220 28.73285 336 ft 21 kts 270°
2026-05-07 16:33 41.26216 28.73108 336 ft 15 kts 270°
2026-05-07 16:33 41.26216 28.73017 336 ft 3 kts 270°
2026-05-07 16:34 41.26215 28.72984 336 ft 4 kts 270°
2026-05-07 16:34 41.26215 28.72949 336 ft 4 kts 270°
2026-05-07 16:34 41.26215 28.72912 336 ft 4 kts 269°
2026-05-07 16:34 41.26215 28.72835 338 ft 19 kts 274°
2026-05-07 16:35 41.26261 28.72775 336 ft 0 kts 359°
2026-05-07 16:35 41.26269 28.72775 337 ft 4 kts 359°
2026-05-07 16:35 41.26275 28.72775 337 ft 0 kts
2026-05-07 16:36 41.26309 28.72774 336 ft 17 kts 359°
2026-05-07 16:36 41.26390 28.72829 336 ft 11 kts 88°
2026-05-07 16:36 41.26391 28.72934 339 ft 12 kts 92°
2026-05-07 16:36 41.26332 28.73002 334 ft 15 kts 175°
2026-05-07 16:37 41.26233 28.72985 333 ft 15 kts 217°
2026-05-07 16:37 41.26215 28.72854 339 ft 15 kts 267°
2026-05-07 16:37 41.26214 28.72721 337 ft 15 kts 269°
2026-05-07 16:37 41.26212 28.72585 339 ft 15 kts 272°
2026-05-07 16:38 41.26298 28.72525 336 ft 21 kts 358°
2026-05-07 16:38 41.26758 28.72516 336 ft 122 kts 359°
2026-05-07 16:38 41.27873 28.72495 665 ft 196 kts 360°
2026-05-07 16:38 41.29343 28.72486 1830 ft 226 kts 358°
2026-05-07 16:39 41.30921 28.72457 3521 ft 228 kts 355°
2026-05-07 16:39 41.32538 28.72432 4892 ft 241 kts 356°
2026-05-07 16:39 41.34185 28.72384 4962 ft 222 kts 351°
2026-05-07 16:39 41.35668 28.71740 4993 ft 233 kts 328°
2026-05-07 16:40 41.36985 28.70396 5005 ft 241 kts 314°
2026-05-07 16:40 41.38327 28.69112 4992 ft 246 kts 336°
2026-05-07 16:40 41.40025 28.68854 5007 ft 251 kts
2026-05-07 16:40 41.41609 28.69789 5112 ft 253 kts 38°
2026-05-07 16:41 41.42638 28.71679 5357 ft 258 kts 68°
2026-05-07 16:41 41.42878 28.74052 5713 ft 262 kts 93°
2026-05-07 16:41 41.42707 28.76476 6256 ft 265 kts 95°
2026-05-07 16:41 41.42507 28.78939 6750 ft 271 kts 95°
2026-05-07 16:42 41.42291 28.81481 7189 ft 284 kts 95°
2026-05-07 16:42 41.42063 28.84142 7669 ft 294 kts 95°
2026-05-07 16:42 41.41806 28.86867 8172 ft 297 kts 101°
2026-05-07 16:42 41.40985 28.89379 8672 ft 299 kts 124°
2026-05-07 16:43 41.39763 28.91594 9213 ft 302 kts 127°
2026-05-07 16:43 41.38513 28.93867 9736 ft 306 kts 126°
2026-05-07 16:43 41.37279 28.96185 10224 ft 308 kts 124°
2026-05-07 16:43 41.36062 28.98541 10722 ft 309 kts 124°
2026-05-07 16:44 41.34862 29.00916 11199 ft 309 kts 123°
2026-05-07 16:44 41.33674 29.03304 11689 ft 310 kts 123°
2026-05-07 16:44 41.32451 29.05794 12255 ft 331 kts 123°
2026-05-07 16:44 41.31176 29.08408 12809 ft 340 kts 122°
2026-05-07 16:45 41.29892 29.11055 13329 ft 342 kts 122°
2026-05-07 16:45 41.28607 29.13715 13930 ft 340 kts 122°
2026-05-07 16:45 41.27330 29.16358 14522 ft 341 kts 122°
2026-05-07 16:45 41.26035 29.19045 15132 ft 350 kts 122°
2026-05-07 16:46 41.24727 29.21757 15747 ft 355 kts 122°
2026-05-07 16:46 41.23384 29.24537 16375 ft 359 kts 122°
2026-05-07 16:46 41.22030 29.27341 17017 ft 362 kts 122°
2026-05-07 16:46 41.20664 29.30165 17667 ft 365 kts 122°
2026-05-07 16:47 41.19285 29.33016 18330 ft 368 kts 122°
2026-05-07 16:47 41.17892 29.35894 18927 ft 376 kts 121°
2026-05-07 16:47 41.16461 29.38848 19530 ft 384 kts 121°
2026-05-07 16:47 41.15010 29.41839 20133 ft 388 kts 121°
2026-05-07 16:48 41.13540 29.44865 20741 ft 391 kts 121°
2026-05-07 16:48 41.12077 29.47872 21347 ft 395 kts 121°
2026-05-07 16:48 41.10575 29.50959 21997 ft 403 kts 121°
2026-05-07 16:48 41.09035 29.54121 22689 ft 412 kts 120°
2026-05-07 16:49 41.07464 29.57345 23377 ft 420 kts 120°
2026-05-07 16:49 41.05862 29.60627 24005 ft 427 kts 120°
2026-05-07 16:49 41.04237 29.63953 24588 ft 432 kts 120°
2026-05-07 16:49 41.02593 29.67313 25179 ft 437 kts 120°
2026-05-07 16:50 41.00932 29.70701 25784 ft 441 kts 120°
2026-05-07 16:50 40.99258 29.74114 26397 ft 444 kts 120°
2026-05-07 16:50 40.97571 29.77549 26985 ft 447 kts 121°
2026-05-07 16:50 40.95876 29.81002 27127 ft 462 kts 121°
2026-05-07 16:51 40.94109 29.84596 27125 ft 469 kts 121°
2026-05-07 16:51 40.92318 29.88231 27118 ft 474 kts 121°
2026-05-07 16:51 40.90517 29.91881 27109 ft 474 kts 121°
2026-05-07 16:51 40.88718 29.95519 27099 ft 472 kts 121°
2026-05-07 16:52 40.86922 29.99144 27109 ft 471 kts 121°
2026-05-07 16:52 40.85130 30.02758 27107 ft 470 kts 121°
2026-05-07 16:52 40.83338 30.06371 27104 ft 472 kts 121°
2026-05-07 16:52 40.81515 30.10051 27125 ft 484 kts 121°
2026-05-07 16:53 40.79693 30.13722 27125 ft 486 kts 121°
2026-05-07 16:53 40.77833 30.17465 27117 ft 490 kts 121°
2026-05-07 16:53 40.75961 30.21225 27108 ft 490 kts 121°
2026-05-07 16:53 40.74091 30.24975 27099 ft 489 kts 121°
2026-05-07 16:54 40.72221 30.28719 27099 ft 488 kts 121°
2026-05-07 16:54 40.70354 30.32455 27104 ft 488 kts 121°
2026-05-07 16:54 40.68487 30.36186 27107 ft 487 kts 121°
2026-05-07 16:54 40.66622 30.39912 27123 ft 487 kts 121°
2026-05-07 16:55 40.64752 30.43640 27119 ft 488 kts 121°
2026-05-07 16:55 40.62896 30.47340 27125 ft 489 kts 121°
2026-05-07 16:55 40.61043 30.51026 27124 ft 490 kts 121°
2026-05-07 16:55 40.59155 30.54777 27132 ft 491 kts 121°
2026-05-07 16:56 40.57261 30.58536 27132 ft 492 kts 121°
2026-05-07 16:56 40.55371 30.62287 27159 ft 491 kts 121°
2026-05-07 16:56 40.51605 30.69791 27685 ft 494 kts 118°
2026-05-07 16:57 40.49950 30.73751 27956 ft 495 kts 112°
2026-05-07 16:57 40.48568 30.77886 28239 ft 493 kts 107°
2026-05-07 16:57 40.47502 30.82163 28504 ft 492 kts 102°
2026-05-07 16:57 40.46537 30.86413 28765 ft 494 kts 102°
2026-05-07 16:58 40.45554 30.90738 29027 ft 496 kts 102°
2026-05-07 16:58 40.44553 30.95079 29320 ft 498 kts 103°
2026-05-07 16:58 40.43535 30.99428 29605 ft 501 kts 103°
2026-05-07 16:58 40.42496 31.03812 29900 ft 504 kts 103°
2026-05-07 16:59 40.41447 31.08207 30189 ft 506 kts 103°
2026-05-07 16:59 40.40391 31.12625 30431 ft 509 kts 103°
2026-05-07 16:59 40.39331 31.17066 30672 ft 512 kts 103°
2026-05-07 16:59 40.38270 31.21534 31014 ft 511 kts 102°
2026-05-07 17:00 40.37413 31.25957 31509 ft 504 kts 97°
2026-05-07 17:00 40.36691 31.30440 31997 ft 501 kts 96°
2026-05-07 17:00 40.35995 31.34901 32490 ft 498 kts 96°
2026-05-07 17:00 40.35301 31.39333 33013 ft 495 kts 96°
2026-05-07 17:01 40.34604 31.43728 33497 ft 492 kts 96°
2026-05-07 17:01 40.33898 31.48114 33885 ft 492 kts 96°
2026-05-07 17:01 40.33185 31.52494 34285 ft 491 kts 97°
2026-05-07 17:01 40.32468 31.56860 34646 ft 490 kts 97°
2026-05-07 17:02 40.31760 31.61159 34999 ft 488 kts 97°
2026-05-07 17:02 40.31043 31.65499 35357 ft 487 kts 97°
2026-05-07 17:02 40.30325 31.69834 35702 ft 486 kts 97°
2026-05-07 17:02 40.29610 31.74150 36071 ft 484 kts 97°
2026-05-07 17:03 40.28897 31.78441 36418 ft 481 kts 98°
2026-05-07 17:03 40.28188 31.82700 36823 ft 478 kts 98°
2026-05-07 17:03 40.27479 31.86957 37077 ft 479 kts 98°
2026-05-07 17:03 40.26760 31.91240 37126 ft 485 kts 99°
2026-05-07 17:04 40.24995 31.99812 37156 ft 498 kts 102°
2026-05-07 17:04 40.23047 32.08611 37185 ft 508 kts 103°
2026-05-07 17:05 40.21065 32.17573 37173 ft 518 kts 103°
2026-05-07 17:05 40.19064 32.26691 37171 ft 524 kts 103°
2026-05-07 17:06 40.17047 32.35870 37182 ft 526 kts 103°
2026-05-07 17:06 40.15020 32.45054 37175 ft 526 kts 103°
2026-05-07 17:07 40.12999 32.54166 37173 ft 525 kts 103°
2026-05-07 17:07 40.10966 32.63296 37175 ft 522 kts 103°
2026-05-07 17:08 40.08937 32.72376 37173 ft 520 kts 103°
2026-05-07 17:08 40.06895 32.81376 37172 ft 520 kts 105°
2026-05-07 17:09 40.04373 32.90220 37175 ft 520 kts 108°
2026-05-07 17:09 40.01739 32.98997 37189 ft 520 kts 108°
2026-05-07 17:10 39.99119 33.07787 37180 ft 520 kts 108°
2026-05-07 17:10 39.96510 33.16594 37180 ft 521 kts 108°
2026-05-07 17:11 39.93912 33.25349 37175 ft 522 kts 108°
2026-05-07 17:11 39.91286 33.34163 37168 ft 523 kts 108°
2026-05-07 17:12 39.88648 33.42981 37163 ft 523 kts 108°
2026-05-07 17:12 39.86000 33.51805 37168 ft 523 kts 108°
2026-05-07 17:13 39.83369 33.60617 37178 ft 522 kts 107°
2026-05-07 17:13 39.81404 33.69614 37174 ft 520 kts 101°
2026-05-07 17:14 39.79633 33.78735 37159 ft 520 kts 101°
2026-05-07 17:14 39.77783 33.87823 37159 ft 520 kts 102°
2026-05-07 17:15 39.75432 33.96669 37166 ft 522 kts 108°
2026-05-07 17:15 39.72864 34.05506 37166 ft 522 kts 108°
2026-05-07 17:16 39.70319 34.14349 37170 ft 522 kts 108°
2026-05-07 17:16 39.67795 34.23189 37168 ft 522 kts 108°
2026-05-07 17:17 39.65266 34.32027 37176 ft 522 kts 108°
2026-05-07 17:17 39.62744 34.40802 37166 ft 522 kts 108°
2026-05-07 17:18 39.60206 34.49629 37167 ft 522 kts 108°
2026-05-07 17:18 39.57669 34.58442 37174 ft 522 kts 108°
2026-05-07 17:19 39.55140 34.67199 37165 ft 522 kts 108°
2026-05-07 17:19 39.52587 34.76004 37164 ft 522 kts 108°
2026-05-07 17:20 39.50029 34.84794 37167 ft 521 kts 108°
2026-05-07 17:20 39.47468 34.93565 37166 ft 521 kts 108°
2026-05-07 17:21 39.44898 35.02339 37169 ft 521 kts 108°
2026-05-07 17:21 39.42337 35.11055 37170 ft 522 kts 108°
2026-05-07 17:22 39.39756 35.19817 37179 ft 522 kts 108°
2026-05-07 17:22 39.37205 35.28609 37163 ft 522 kts 108°
2026-05-07 17:23 39.34669 35.37392 37183 ft 522 kts 108°
2026-05-07 17:23 39.32122 35.46163 37187 ft 522 kts 108°
2026-05-07 17:24 39.29577 35.54878 37185 ft 522 kts 109°
2026-05-07 17:24 39.27012 35.63628 37199 ft 522 kts 109°
2026-05-07 17:25 39.24438 35.72386 37197 ft 522 kts 109°
2026-05-07 17:25 39.21856 35.81141 37200 ft 522 kts 109°
2026-05-07 17:26 39.19286 35.89822 37200 ft 522 kts 109°
2026-05-07 17:26 39.16696 35.98553 37220 ft 522 kts 109°
2026-05-07 17:27 39.14702 36.07506 37185 ft 519 kts 97°
2026-05-07 17:27 39.13584 36.16676 37196 ft 518 kts 96°
2026-05-07 17:28 39.12480 36.25840 37189 ft 518 kts 96°
2026-05-07 17:28 39.11339 36.34934 37190 ft 518 kts 97°
2026-05-07 17:29 39.10161 36.44083 37187 ft 518 kts 97°
2026-05-07 17:29 39.08972 36.53218 37191 ft 517 kts 97°
2026-05-07 17:30 39.07778 36.62353 37193 ft 517 kts 97°
2026-05-07 17:30 39.06587 36.71426 37195 ft 517 kts 97°
2026-05-07 17:31 39.05381 36.80551 37190 ft 518 kts 97°
2026-05-07 17:31 39.04167 36.89683 37195 ft 518 kts 97°
2026-05-07 17:32 39.02947 36.98812 37182 ft 518 kts 97°
2026-05-07 17:32 39.01925 37.06404 37188 ft 518 kts 97°
2026-05-07 17:33 39.00491 37.17005 37177 ft 518 kts 98°
2026-05-07 17:33 38.99246 37.26136 37178 ft 519 kts 98°
2026-05-07 17:34 38.97994 37.35272 37173 ft 519 kts 98°
2026-05-07 17:34 38.96744 37.44339 37173 ft 519 kts 98°
2026-05-07 17:35 38.95478 37.53462 37170 ft 519 kts 98°
2026-05-07 17:35 38.94204 37.62596 37165 ft 520 kts 98°
2026-05-07 17:36 38.92922 37.71727 37170 ft 520 kts 98°
2026-05-07 17:36 38.91850 37.79324 37164 ft 520 kts 99°
2026-05-07 17:37 38.90343 37.89937 37152 ft 520 kts 99°
2026-05-07 17:37 38.89040 37.99064 37150 ft 520 kts 99°
2026-05-07 17:38 38.87950 38.06649 37157 ft 520 kts 99°
2026-05-07 17:38 38.86630 38.15776 37154 ft 520 kts 99°
2026-05-07 17:39 38.85091 38.26390 37140 ft 521 kts 99°
2026-05-07 17:39 38.83757 38.35515 37127 ft 521 kts 99°
2026-05-07 17:40 38.82640 38.43113 37120 ft 521 kts 99°
2026-05-07 17:40 38.81291 38.52244 37129 ft 521 kts 100°
2026-05-07 17:41 38.79935 38.61369 37130 ft 521 kts 100°
2026-05-07 17:41 38.78574 38.70482 37131 ft 520 kts 100°
2026-05-07 17:42 38.77216 38.79516 37128 ft 520 kts 100°
2026-05-07 17:42 38.75844 38.88604 37118 ft 520 kts 101°
2026-05-07 17:43 38.74482 38.97708 37126 ft 520 kts 100°
2026-05-07 17:43 38.73136 39.06811 37111 ft 521 kts 100°
2026-05-07 17:44 38.71785 39.15860 37118 ft 521 kts 101°
2026-05-07 17:44 38.70162 39.24908 37131 ft 521 kts 109°
2026-05-07 17:45 38.67628 39.33592 37128 ft 521 kts 112°
2026-05-07 17:45 38.65035 39.42254 37126 ft 521 kts 111°
2026-05-07 17:46 38.62519 39.50889 37122 ft 521 kts 111°
2026-05-07 17:46 38.60011 39.59576 37128 ft 521 kts 111°
2026-05-07 17:47 38.57512 39.68274 37110 ft 521 kts 111°
2026-05-07 17:47 38.55007 39.76959 37121 ft 521 kts 111°
2026-05-07 17:48 38.52494 39.85624 37122 ft 521 kts 111°
2026-05-07 17:48 38.49990 39.94228 37122 ft 520 kts 111°
2026-05-07 17:49 38.47462 40.02882 37119 ft 520 kts 111°
2026-05-07 17:49 38.44928 40.11529 37116 ft 521 kts 112°
2026-05-07 17:50 38.42386 40.20181 37099 ft 521 kts 112°
2026-05-07 17:50 38.39855 40.28764 37117 ft 521 kts 112°
2026-05-07 17:51 38.37296 40.37419 37130 ft 522 kts 112°
2026-05-07 17:51 38.34728 40.46073 37113 ft 522 kts 113°
2026-05-07 17:52 38.32154 40.54724 37113 ft 523 kts 113°
2026-05-07 17:52 38.29588 40.63314 37115 ft 523 kts 113°
2026-05-07 17:53 38.26997 40.71963 37094 ft 523 kts 114°
2026-05-07 17:53 38.24403 40.80600 37113 ft 523 kts 114°
2026-05-07 17:54 38.21763 40.89212 37106 ft 522 kts 114°
2026-05-07 17:54 38.19079 40.97802 37091 ft 523 kts 115°
2026-05-07 17:55 38.16418 41.06325 37093 ft 522 kts 115°
2026-05-07 17:55 38.13743 41.14894 37098 ft 522 kts 115°
2026-05-07 17:56 38.11098 41.23477 37086 ft 522 kts 115°
2026-05-07 17:56 38.08461 41.32055 37098 ft 522 kts 115°
2026-05-07 17:57 38.05826 41.40573 37110 ft 522 kts 115°
2026-05-07 17:57 38.03159 41.49160 37082 ft 523 kts 116°
2026-05-07 17:58 38.00498 41.57736 37104 ft 524 kts 115°
2026-05-07 17:58 37.97854 41.66351 37111 ft 524 kts 115°
2026-05-07 17:59 37.95219 41.74910 37087 ft 525 kts 116°
2026-05-07 17:59 37.92581 41.83529 37118 ft 526 kts 113°
2026-05-07 18:00 37.90791 41.92575 37124 ft 533 kts 103°
2026-05-07 18:00 37.90128 42.01978 37130 ft 538 kts 97°
2026-05-07 18:01 37.89599 42.11430 37153 ft 538 kts 98°
2026-05-07 18:01 37.88972 42.20803 37132 ft 538 kts 98°
2026-05-07 18:02 37.88029 42.34938 37141 ft 536 kts 98°
2026-05-07 18:03 37.87395 42.44337 37159 ft 536 kts 98°
2026-05-07 18:03 37.86752 42.53745 37159 ft 537 kts 98°
2026-05-07 18:04 37.85777 42.63009 37150 ft 531 kts 109°
2026-05-07 18:04 37.83250 42.71679 37137 ft 521 kts 122°
2026-05-07 18:05 37.79580 42.79492 37171 ft 516 kts 127°
2026-05-07 18:05 37.75798 42.87210 37166 ft 517 kts 127°
2026-05-07 18:06 37.72045 42.94959 37155 ft 516 kts 127°
2026-05-07 18:06 37.68348 43.02659 37164 ft 516 kts 127°
2026-05-07 18:07 37.64620 43.10404 37165 ft 516 kts 127°
2026-05-07 18:07 37.60890 43.18138 37150 ft 516 kts 127°
2026-05-07 18:08 37.57156 43.25861 37150 ft 515 kts 128°
2026-05-07 18:08 37.53454 43.33495 37155 ft 513 kts 127°
2026-05-07 18:09 37.49741 43.41127 37159 ft 510 kts 128°
2026-05-07 18:09 37.46028 43.48751 37148 ft 510 kts 128°
2026-05-07 18:10 37.42320 43.56350 37143 ft 510 kts 128°
2026-05-07 18:10 37.38602 43.63945 37141 ft 509 kts 128°
2026-05-07 18:11 37.34901 43.71483 37152 ft 511 kts 128°
2026-05-07 18:11 37.31153 43.79103 37127 ft 513 kts 128°
2026-05-07 18:12 37.27392 43.86736 37123 ft 513 kts 129°
2026-05-07 18:12 37.25279 43.90268 37117 ft 500 kts 141°
2026-05-07 18:12 37.22719 43.93122 37143 ft 487 kts 151°
2026-05-07 18:13 37.16917 43.96953 37137 ft 467 kts 167°
2026-05-07 18:13 37.10803 43.99684 37127 ft 468 kts 167°
2026-05-07 18:14 37.04683 44.02482 37079 ft 468 kts 167°
2026-05-07 18:14 36.98569 44.05325 37115 ft 470 kts 166°
2026-05-07 18:15 36.92414 44.08189 37109 ft 473 kts 166°
2026-05-07 18:15 36.86235 44.11064 37098 ft 474 kts 166°
2026-05-07 18:16 36.80060 44.13931 37105 ft 473 kts 166°
2026-05-07 18:16 36.73890 44.16788 37073 ft 473 kts 166°
2026-05-07 18:17 36.67733 44.19623 37091 ft 471 kts 167°
2026-05-07 18:17 36.61604 44.22440 37088 ft 469 kts 167°
2026-05-07 18:18 36.55497 44.25243 37078 ft 466 kts 167°
2026-05-07 18:18 36.49425 44.28025 37088 ft 464 kts 167°
2026-05-07 18:19 36.43371 44.30794 37100 ft 464 kts 167°
2026-05-07 18:19 36.37319 44.33555 37088 ft 465 kts 167°
2026-05-07 18:20 36.31226 44.36329 37087 ft 467 kts 167°
2026-05-07 18:20 36.25127 44.39105 37070 ft 467 kts 167°
2026-05-07 18:21 36.19026 44.41879 37080 ft 466 kts 167°
2026-05-07 18:21 36.12941 44.44640 37082 ft 466 kts 167°
2026-05-07 18:22 36.06851 44.47398 37070 ft 465 kts 167°
2026-05-07 18:22 36.00786 44.50140 37072 ft 464 kts 167°
2026-05-07 18:23 35.94728 44.52874 37041 ft 463 kts 167°
2026-05-07 18:23 35.88689 44.55596 37055 ft 461 kts 167°
2026-05-07 18:24 35.82663 44.58306 37068 ft 461 kts 167°
2026-05-07 18:24 35.76636 44.61012 37060 ft 460 kts 167°
2026-05-07 18:25 35.70615 44.63711 37071 ft 460 kts 167°
2026-05-07 18:25 35.64595 44.66406 37055 ft 461 kts 167°
2026-05-07 18:26 35.58576 44.69097 37070 ft 460 kts 167°
2026-05-07 18:26 35.52559 44.71783 37069 ft 460 kts 167°
2026-05-07 18:27 35.46550 44.74460 37066 ft 459 kts 167°
2026-05-07 18:27 35.40542 44.77132 37083 ft 459 kts 167°
2026-05-07 18:28 35.34534 44.79800 37066 ft 459 kts 168°
2026-05-07 18:28 35.28528 44.82464 37068 ft 459 kts 168°
2026-05-07 18:29 35.22570 44.85102 37076 ft 458 kts 168°
2026-05-07 18:29 35.16542 44.87767 37071 ft 458 kts 168°
2026-05-07 18:30 35.10549 44.90411 37073 ft 458 kts 168°
2026-05-07 18:30 35.04599 44.93032 37068 ft 458 kts 168°
2026-05-07 18:31 34.98609 44.95668 37067 ft 457 kts 168°
2026-05-07 18:31 34.92626 44.98296 37064 ft 457 kts 168°
2026-05-07 18:32 34.86645 45.00920 37068 ft 456 kts 168°
2026-05-07 18:32 34.80678 45.03534 37066 ft 455 kts 168°
2026-05-07 18:33 34.74711 45.06142 37039 ft 455 kts 168°
2026-05-07 18:33 34.68758 45.08741 37063 ft 454 kts 168°
2026-05-07 18:34 34.62818 45.11329 37063 ft 454 kts 168°
2026-05-07 18:34 34.56882 45.13912 37045 ft 453 kts 168°
2026-05-07 18:35 34.50916 45.16202 37053 ft 444 kts 175°
2026-05-07 18:35 34.44879 45.17317 37057 ft 434 kts 184°
2026-05-07 18:36 34.38857 45.17707 37048 ft 433 kts 184°
2026-05-07 18:36 34.32846 45.18090 37058 ft 433 kts 184°
2026-05-07 18:37 34.26831 45.18489 37057 ft 433 kts 184°
2026-05-07 18:37 34.20816 45.18897 37049 ft 433 kts 184°
2026-05-07 18:38 34.14805 45.19307 37051 ft 433 kts 184°
2026-05-07 18:38 34.08796 45.19715 37048 ft 432 kts 184°
2026-05-07 18:39 34.02798 45.20120 37044 ft 431 kts 184°
2026-05-07 18:39 33.96854 45.20522 37060 ft 431 kts 184°
2026-05-07 18:40 33.90872 45.20926 37056 ft 430 kts 184°
2026-05-07 18:40 33.84904 45.21329 37049 ft 429 kts 184°
2026-05-07 18:41 33.78935 45.21731 37045 ft 429 kts 184°
2026-05-07 18:41 33.72995 45.22131 37051 ft 429 kts 184°
2026-05-07 18:42 33.67031 45.22531 37048 ft 429 kts 184°
2026-05-07 18:42 33.61072 45.22930 37052 ft 429 kts 184°
2026-05-07 18:43 33.55108 45.23329 37053 ft 429 kts 184°
2026-05-07 18:43 33.49146 45.23727 37039 ft 429 kts 185°
2026-05-07 18:44 33.43191 45.24124 37051 ft 428 kts 185°
2026-05-07 18:44 33.37241 45.24521 37056 ft 428 kts 185°
2026-05-07 18:45 33.31303 45.25724 37046 ft 445 kts 170°
2026-05-07 18:45 33.25618 45.28979 37045 ft 467 kts 155°
2026-05-07 18:46 33.20442 45.33820 37050 ft 475 kts 151°
2026-05-07 18:46 33.15328 45.38798 37046 ft 474 kts 152°
2026-05-07 18:47 33.10182 45.43707 37051 ft 473 kts 152°
2026-05-07 18:47 33.05011 45.48569 37041 ft 473 kts 153°
2026-05-07 18:48 32.99835 45.53420 37044 ft 474 kts 153°
2026-05-07 18:48 32.94688 45.58241 37051 ft 474 kts 153°
2026-05-07 18:49 32.89545 45.63054 37035 ft 473 kts 153°
2026-05-07 18:49 32.85207 45.67108 37036 ft 473 kts 153°
2026-05-07 18:50 32.80030 45.71941 37041 ft 473 kts 153°
2026-05-07 18:50 32.74857 45.76768 37035 ft 473 kts 153°
2026-05-07 18:51 32.69681 45.81589 37035 ft 472 kts 153°
2026-05-07 18:51 32.64511 45.86397 37021 ft 472 kts 153°
2026-05-07 18:52 32.59335 45.91203 37030 ft 472 kts 153°
2026-05-07 18:52 32.54155 45.96005 37030 ft 473 kts 153°
2026-05-07 18:53 32.48979 46.00796 37020 ft 472 kts 153°
2026-05-07 18:53 32.43797 46.05587 37026 ft 472 kts 153°
2026-05-07 18:54 32.38648 46.10338 37026 ft 473 kts 153°
2026-05-07 18:54 32.33466 46.15113 37018 ft 473 kts 153°
2026-05-07 18:55 32.28292 46.19873 37022 ft 473 kts 153°
2026-05-07 18:55 32.23090 46.24652 37022 ft 474 kts 153°
2026-05-07 18:56 32.17880 46.29432 37013 ft 474 kts 153°
2026-05-07 18:56 32.12666 46.34210 37005 ft 475 kts 153°
2026-05-07 18:57 32.07447 46.38985 36992 ft 474 kts 153°
2026-05-07 18:57 32.02232 46.43749 36993 ft 475 kts 153°
2026-05-07 18:58 31.97007 46.48513 36992 ft 475 kts 153°
2026-05-07 18:58 31.91777 46.53275 36978 ft 475 kts 153°
2026-05-07 18:59 31.86548 46.58031 36972 ft 475 kts 153°
2026-05-07 18:59 31.81312 46.62785 36977 ft 476 kts 153°
2026-05-07 19:00 31.76068 46.67538 36966 ft 476 kts 153°
2026-05-07 19:00 31.70818 46.72292 36971 ft 477 kts 153°
2026-05-07 19:01 31.65563 46.77042 36939 ft 477 kts 153°
2026-05-07 19:01 31.60299 46.81794 36954 ft 478 kts 153°
2026-05-07 19:02 31.55027 46.86545 36971 ft 478 kts 153°
2026-05-07 19:02 31.49747 46.91298 36946 ft 479 kts 153°
2026-05-07 19:03 31.44463 46.96047 36966 ft 479 kts 153°
2026-05-07 19:03 31.39210 47.00761 36959 ft 479 kts 153°
2026-05-07 19:04 31.33885 47.05533 36949 ft 479 kts 153°
2026-05-07 19:04 31.28628 47.10238 36959 ft 479 kts 154°
2026-05-07 19:05 31.23330 47.14972 36955 ft 479 kts 154°
2026-05-07 19:05 31.18032 47.19699 36942 ft 479 kts 154°
2026-05-07 19:06 31.12736 47.24417 36956 ft 479 kts 154°
2026-05-07 19:06 31.04785 47.31488 36941 ft 479 kts 154°
2026-05-07 19:07 30.99443 47.36229 36948 ft 479 kts 154°
2026-05-07 19:07 30.94166 47.40907 36943 ft 480 kts 154°
2026-05-07 19:08 30.88850 47.45613 36934 ft 480 kts 154°
2026-05-07 19:08 30.83541 47.50352 36940 ft 485 kts 152°
2026-05-07 19:09 30.78460 47.55601 36938 ft 490 kts 149°
2026-05-07 19:09 30.73407 47.60942 36927 ft 491 kts 149°
2026-05-07 19:10 30.68341 47.66264 36916 ft 491 kts 149°
2026-05-07 19:10 30.63249 47.71577 36913 ft 491 kts 150°
2026-05-07 19:11 30.58163 47.76868 36904 ft 491 kts 150°
2026-05-07 19:11 30.53070 47.82156 36929 ft 491 kts 150°
2026-05-07 19:12 30.47972 47.87444 36923 ft 492 kts 150°
2026-05-07 19:12 30.42872 47.92727 36908 ft 492 kts 149°
2026-05-07 19:13 30.37766 47.98009 36887 ft 492 kts 149°
2026-05-07 19:13 30.32652 48.03292 36881 ft 493 kts 149°
2026-05-07 19:14 30.27535 48.08570 36867 ft 493 kts 149°
2026-05-07 19:14 30.22410 48.13847 36923 ft 494 kts 149°
2026-05-07 19:15 30.17275 48.19129 36894 ft 494 kts 149°
2026-05-07 19:15 30.12132 48.24410 36919 ft 495 kts 149°
2026-05-07 19:16 30.06982 48.29690 36914 ft 495 kts 149°
2026-05-07 19:16 30.01825 48.34971 36883 ft 496 kts 149°
2026-05-07 19:17 29.96698 48.40215 36898 ft 496 kts 149°
2026-05-07 19:17 29.91535 48.45487 36907 ft 496 kts 149°
2026-05-07 19:18 29.86148 48.50289 36893 ft 482 kts 158°
2026-05-07 19:18 29.80329 48.53856 36903 ft 471 kts 164°
2026-05-07 19:19 29.74444 48.57196 36905 ft 472 kts 164°
2026-05-07 19:19 29.68568 48.60571 36879 ft 472 kts 164°
2026-05-07 19:20 29.62698 48.63965 36900 ft 472 kts 164°
2026-05-07 19:20 29.56831 48.67356 36908 ft 472 kts 164°
2026-05-07 19:21 29.50961 48.70740 36876 ft 472 kts 164°
2026-05-07 19:21 29.45085 48.74124 36902 ft 473 kts 164°
2026-05-07 19:22 29.39204 48.77506 36909 ft 473 kts 164°
2026-05-07 19:22 29.33313 48.80895 36907 ft 474 kts 164°
2026-05-07 19:23 29.27413 48.84285 36904 ft 474 kts 163°
2026-05-07 19:23 29.21511 48.87671 36908 ft 475 kts 163°
2026-05-07 19:24 29.15688 48.91213 36911 ft 483 kts 158°
2026-05-07 19:24 29.10233 48.95904 36909 ft 497 kts 149°
2026-05-07 19:25 29.05013 49.01098 36908 ft 498 kts 149°
2026-05-07 19:25 28.99776 49.06262 36906 ft 497 kts 149°
2026-05-07 19:26 28.94514 49.11384 36901 ft 497 kts 149°
2026-05-07 19:26 28.89238 49.16506 36910 ft 498 kts 149°
2026-05-07 19:27 28.84007 49.21701 36902 ft 501 kts 148°
2026-05-07 19:27 28.78833 49.27051 36897 ft 503 kts 147°
2026-05-07 19:28 28.73645 49.32395 36898 ft 504 kts 148°
2026-05-07 19:28 28.68419 49.37731 36902 ft 504 kts 148°
2026-05-07 19:29 28.63217 49.43106 36889 ft 509 kts 144°
2026-05-07 19:29 28.58607 49.49382 36898 ft 525 kts 133°
2026-05-07 19:30 28.54775 49.56557 36894 ft 532 kts 128°
2026-05-07 19:30 28.51023 49.63811 36874 ft 532 kts 129°
2026-05-07 19:31 28.47199 49.71012 36885 ft 532 kts 129°
2026-05-07 19:31 28.43211 49.78042 36905 ft 522 kts 137°
2026-05-07 19:32 28.38241 49.83842 36904 ft 506 kts 149°
2026-05-07 19:32 28.32618 49.88339 36891 ft 495 kts 156°
2026-05-07 19:33 28.26859 49.92618 36900 ft 495 kts 155°
2026-05-07 19:33 28.21109 49.96935 36895 ft 496 kts 155°
2026-05-07 19:34 28.15373 50.01277 36882 ft 495 kts 155°
2026-05-07 19:34 28.09647 50.05615 36890 ft 495 kts 155°
2026-05-07 19:35 28.03921 50.09944 36893 ft 495 kts 155°
2026-05-07 19:35 27.98195 50.14265 36886 ft 494 kts 155°
2026-05-07 19:36 27.92476 50.18575 36890 ft 494 kts 155°
2026-05-07 19:36 27.86756 50.22880 36884 ft 494 kts 155°
2026-05-07 19:37 27.81999 50.26456 36874 ft 494 kts 154°
2026-05-07 19:37 27.76281 50.30751 36881 ft 494 kts 155°
2026-05-07 19:38 27.70560 50.35041 36882 ft 493 kts 155°
2026-05-07 19:38 27.64842 50.39323 36853 ft 493 kts 154°
2026-05-07 19:39 27.59279 50.43529 36883 ft 493 kts 154°
2026-05-07 19:39 27.53620 50.47919 36882 ft 493 kts 153°
2026-05-07 19:40 27.47969 50.52288 36861 ft 493 kts 154°
2026-05-07 19:40 27.42304 50.56640 36861 ft 492 kts 154°
2026-05-07 19:41 27.36636 50.60964 36857 ft 492 kts 154°
2026-05-07 19:41 27.30968 50.65281 36864 ft 492 kts 154°
2026-05-07 19:42 27.25334 50.69569 36858 ft 493 kts 154°
2026-05-07 19:42 27.19654 50.73889 36862 ft 493 kts 154°
2026-05-07 19:43 27.14072 50.78429 36862 ft 501 kts 147°
2026-05-07 19:43 27.09060 50.83995 36850 ft 509 kts 141°
2026-05-07 19:44 27.04123 50.89687 36854 ft 509 kts 142°
2026-05-07 19:44 26.99351 50.95607 36868 ft 518 kts 134°
2026-05-07 19:45 26.95423 51.02468 36867 ft 526 kts 127°
2026-05-07 19:45 26.91647 51.09489 36845 ft 526 kts 128°
2026-05-07 19:46 26.87900 51.16534 36848 ft 530 kts 123°
2026-05-07 19:46 26.85095 51.24232 36863 ft 538 kts 113°
2026-05-07 19:47 26.82806 51.32225 36854 ft 539 kts 113°
2026-05-07 19:47 26.80488 51.40190 36837 ft 538 kts 113°
2026-05-07 19:48 26.78115 51.48127 36843 ft 537 kts 114°
2026-05-07 19:48 26.75730 51.56053 36835 ft 537 kts 114°
2026-05-07 19:49 26.73350 51.63972 36829 ft 537 kts 114°
2026-05-07 19:49 26.70953 51.71881 36831 ft 537 kts 114°
2026-05-07 19:50 26.68557 51.79782 36817 ft 537 kts 114°
2026-05-07 19:50 26.66181 51.87635 36822 ft 536 kts 114°
2026-05-07 19:51 26.63741 51.95487 36817 ft 534 kts 115°
2026-05-07 19:51 26.61186 52.03271 36814 ft 533 kts 115°
2026-05-07 19:52 26.58624 52.11034 36816 ft 533 kts 115°
2026-05-07 19:52 26.56073 52.18817 36807 ft 533 kts 115°
2026-05-07 19:53 26.53532 52.26582 36813 ft 532 kts 115°
2026-05-07 19:53 26.50988 52.34339 36807 ft 532 kts 115°
2026-05-07 19:54 26.48348 52.42367 36812 ft 532 kts 115°
2026-05-07 19:54 26.45795 52.50112 36811 ft 532 kts 115°
2026-05-07 19:55 26.43253 52.57807 36802 ft 532 kts 115°
2026-05-07 19:55 26.40701 52.65539 36811 ft 531 kts 114°
2026-05-07 19:56 26.38169 52.73289 36813 ft 531 kts 114°
2026-05-07 19:56 26.35645 52.80970 36813 ft 531 kts 115°
2026-05-07 19:57 26.33077 52.88687 36812 ft 531 kts 115°
2026-05-07 19:57 26.30494 52.96398 36800 ft 530 kts 115°
2026-05-07 19:58 26.27910 53.04095 36808 ft 530 kts 115°
2026-05-07 19:58 26.25326 53.11781 36809 ft 530 kts 115°
2026-05-07 19:59 26.22755 53.19418 36808 ft 530 kts 115°
2026-05-07 19:59 26.20162 53.27101 36804 ft 530 kts 115°
2026-05-07 20:00 26.17507 53.34745 36805 ft 528 kts 117°
2026-05-07 20:00 26.14499 53.42192 36814 ft 527 kts 119°
2026-05-07 20:01 26.11469 53.49517 36807 ft 527 kts 118°
2026-05-07 20:01 26.08434 53.56935 36802 ft 527 kts 118°
2026-05-07 20:02 26.05411 53.64358 36805 ft 527 kts 118°
2026-05-07 20:02 26.02382 53.71782 36805 ft 527 kts 118°
2026-05-07 20:03 25.99393 53.79160 36798 ft 527 kts 117°
2026-05-07 20:03 25.96479 53.86643 36802 ft 528 kts 117°
2026-05-07 20:04 25.93550 53.94128 36800 ft 528 kts 117°
2026-05-07 20:04 25.90553 54.01575 36796 ft 527 kts 120°
2026-05-07 20:05 25.87269 54.08839 36813 ft 526 kts 121°
2026-05-07 20:05 25.85637 54.12413 36668 ft 528 kts 120°
2026-05-07 20:05 25.84000 54.16065 36410 ft 528 kts 120°
2026-05-07 20:06 25.82387 54.19727 36130 ft 529 kts 118°
2026-05-07 20:06 25.80960 54.23509 35639 ft 534 kts 113°
2026-05-07 20:06 25.79754 54.27412 35166 ft 535 kts 111°
2026-05-07 20:06 25.78584 54.31337 34706 ft 536 kts 111°
2026-05-07 20:07 25.77416 54.35258 34258 ft 536 kts 111°
2026-05-07 20:07 25.76231 54.39179 33829 ft 535 kts 111°
2026-05-07 20:07 25.75034 54.43078 33301 ft 535 kts 112°
2026-05-07 20:07 25.73840 54.46930 32808 ft 534 kts 112°
2026-05-07 20:08 25.72634 54.50815 32316 ft 534 kts 111°
2026-05-07 20:08 25.71416 54.54724 31838 ft 538 kts 111°
2026-05-07 20:08 25.70193 54.58647 31371 ft 540 kts 111°
2026-05-07 20:08 25.68833 54.62496 30865 ft 531 kts 121°
2026-05-07 20:09 25.66755 54.65819 30397 ft 521 kts 137°
2026-05-07 20:09 25.64026 54.68381 29951 ft 509 kts 152°
2026-05-07 20:09 25.60903 54.70121 29435 ft 498 kts 164°
2026-05-07 20:10 25.54321 54.71295 28124 ft 474 kts 186°
2026-05-07 20:10 25.51099 54.70785 27501 ft 463 kts 197°
2026-05-07 20:10 25.48108 54.69575 26888 ft 454 kts 208°